WW5AH-9 Weather Reports


time (UTC)temp
F
wind
direction
speed
knots
gust
knots
rain 1hr
in
rain 24hr
in
rain mn
in
humidity
%
barometer
mb
20260509212740 84 179 0.0 0.9 0.00 0.00 0.00 66 1008.3
20260509212238 85 217 0.0 1.7 0.00 0.00 0.00 66 1008.3
20260509211733 84 126 0.0 0.9 0.00 0.00 0.00 66 1008.1
20260509211230 84 137 1.7 2.6 0.00 0.00 0.00 67 1008.3
20260509210727 84 219 0.0 2.6 0.00 0.00 0.00 66 1008.0
20260509210225 84 171 0.0 0.0 0.00 0.00 0.00 66 1008.3
20260509205724 84 193 0.9 1.7 0.00 0.00 0.00 66 1008.3
20260509205224 85 184 1.7 2.6 0.00 0.00 0.00 65 1008.5
20260509204720 85 144 1.7 2.6 0.00 0.00 0.00 65 1008.8
20260509204217 86 205 1.7 2.6 0.00 0.00 0.00 65 1008.7
20260509203713 87 177 3.5 5.2 0.00 0.00 0.00 65 1008.9
20260509203211 85 1 0.0 0.0 0.00 0.00 0.00 67 1008.9
20260509202706 84 204 0.9 1.7 0.00 0.00 0.00 67 1009.1
20260509202201 84 202 1.7 2.6 0.00 0.00 0.00 68 1009.2
20260509201657 85 153 1.7 2.6 0.00 0.00 0.00 69 1009.0
20260509201154 83 248 0.0 1.7 0.00 0.00 0.00 71 1009.2
20260509200650 83 308 0.9 1.7 0.00 0.00 0.00 71 1009.1
20260509200145 83 137 1.7 3.5 0.00 0.00 0.00 71 1009.2
20260509195642 83 140 0.0 0.9 0.00 0.00 0.00 72 1009.4
20260509195137 83 150 0.0 0.0 0.00 0.00 0.00 73 1009.3
20260509194636 82 175 2.6 3.5 0.00 0.00 0.00 76 1009.5
20260509194134 81 204 0.0 1.7 0.00 0.00 0.00 76 1009.5
20260509193630 80 106 0.9 2.6 0.00 0.00 0.00 77 1009.6
20260509193125 81 132 2.6 6.1 0.00 0.00 0.00 75 1009.6
20260509192623 81 223 0.0 2.6 0.00 0.00 0.00 78 1009.6
20260509192117 81 157 0.0 2.6 0.00 0.00 0.00 77 1009.5
20260509191612 80 118 0.9 1.7 0.00 0.00 0.00 78 1009.6
20260509191109 80 99 0.9 3.5 0.00 0.00 0.00 77 1010.0
20260509190606 79 207 0.0 2.6 0.00 0.00 0.00 79 1009.9
20260509185601 80 171 0.0 0.9 0.00 0.00 0.00 79 1010.0
20260509185056 80 110 1.7 2.6 0.00 0.00 0.00 79 1010.0
20260509184555 79 240 0.9 6.1 0.00 0.00 0.00 82 1009.9
20260509184051 78 227 0.9 6.1 0.00 0.00 0.00 81 1010.0
20260509183546 77 150 0.0 2.6 0.00 0.00 0.00 82 1009.9
20260509183043 77 179 0.0 2.6 0.00 0.00 0.00 82 1010.1
20260509182539 77 172 1.7 3.5 0.00 0.00 0.00 81 1010.0
20260509182036 78 181 0.0 1.7 0.00 0.00 0.00 80 1010.0
20260509181534 78 188 0.0 0.9 0.00 0.00 0.00 80 1010.2
20260509181031 78 192 0.0 0.9 0.00 0.00 0.00 81 1010.1
20260509180527 79 22 0.0 0.0 0.00 0.00 0.00 81 1010.1
20260509180025 78 241 0.0 0.0 0.00 0.00 0.00 81 1010.2
20260509175519 78 282 0.0 0.0 0.00 0.00 0.00 82 1010.2
20260509175017 77 210 0.0 0.0 0.00 0.00 0.00 82 1010.2
20260509174513 78 179 0.0 0.0 0.00 0.00 0.00 82 1010.3
20260509174008 78 123 0.0 0.0 0.00 0.00 0.00 82 1010.3
20260509173503 77 7 0.0 0.0 0.00 0.00 0.00 82 1010.2
20260509172959 78 118 1.7 3.5 0.00 0.00 0.00 81 1010.3
20260509172457 78 133 1.7 2.6 0.00 0.00 0.00 83 1010.3
20260509171952 77 206 0.9 0.9 0.00 0.00 0.00 83 1010.2
20260509171448 78 126 0.0 0.9 0.00 0.00 0.00 83 1010.3
20260509170945 78 163 0.0 1.7 0.00 0.00 0.00 84 1010.6
20260509170441 76 226 0.0 0.0 0.00 0.00 0.00 86 1010.4
20260509165937 76 52 0.0 0.0 0.00 0.00 0.00 86 1010.6
20260509165436 76 159 0.0 0.0 0.00 0.00 0.00 86 1010.5
20260509164932 75 238 0.0 0.0 0.00 0.00 0.00 87 1010.8
20260509164428 75 205 0.0 0.0 0.00 0.00 0.00 87 1010.6
20260509163924 75 214 0.0 0.0 0.00 0.00 0.00 87 1010.7
20260509163422 75 289 0.0 0.0 0.00 0.00 0.00 88 1010.8
20260509162920 75 290 0.9 0.9 0.00 0.00 0.00 88 1010.7
20260509162419 75 220 0.0 0.0 0.00 0.00 0.00 88 1010.7
20260509161915 75 73 0.0 0.0 0.00 0.00 0.00 88 1010.6
20260509161411 74 104 0.0 0.0 0.00 0.00 0.00 89 1010.5
20260509160907 74 324 0.0 0.9 0.00 0.00 0.00 89 1010.3
20260509160408 74 55 0.0 1.7 0.00 0.00 0.00 89 1010.2
20260509155903 74 175 0.0 0.0 0.00 0.00 0.00 89 1010.3
20260509155400 73 198 0.0 0.0 0.00 0.00 0.00 89 1010.3
20260509154856 73 135 1.7 2.6 0.00 0.00 0.00 89 1010.3
20260509154353 73 172 0.0 1.7 0.00 0.00 0.00 90 1010.1
20260509153850 72 109 0.0 1.7 0.00 0.00 0.00 90 1010.2
20260509153347 73 168 0.0 1.7 0.00 0.00 0.00 90 1010.3
20260509152844 73 172 0.0 0.0 0.00 0.00 0.00 90 1010.2
20260509152339 73 154 0.0 0.0 0.00 0.00 0.00 90 1010.4
20260509151837 73 162 0.0 0.0 0.00 0.00 0.00 90 1010.3
20260509151333 73 207 0.0 0.0 0.00 0.00 0.00 90 1010.5
20260509150832 73 206 0.0 0.0 0.00 0.00 0.00 91 1010.4
20260509150329 73 256 0.0 0.0 0.00 0.00 0.00 91 1010.5
20260509145826 72 278 0.0 0.0 0.00 0.13 0.13 91 1010.5
20260509145321 71 223 0.0 0.0 0.00 0.13 0.13 91 1010.6
20260509144818 71 246 0.0 0.0 0.00 0.13 0.13 91 1010.7
20260509144315 72 194 0.0 0.0 0.00 0.13 0.13 91 1010.7
20260509143812 72 200 0.0 0.9 0.00 0.13 0.13 91 1010.8
20260509143309 72 211 0.0 0.9 0.00 0.13 0.13 92 1010.7
20260509142805 71 253 0.0 0.0 0.00 0.13 0.13 92 1010.5
20260509142301 71 199 0.0 1.7 0.00 0.13 0.13 92 1010.6
20260509141757 72 169 0.0 2.6 0.00 0.13 0.13 92 1010.6
20260509141254 72 191 0.0 0.0 0.00 0.13 0.13 93 1010.7
20260509140751 71 204 0.0 0.0 0.00 0.13 0.13 93 1010.6
20260509140248 70 184 0.0 0.0 0.00 0.13 0.13 94 1010.5
20260509135745 69 185 0.0 0.0 0.00 0.13 0.13 94 1010.7
20260509135243 69 195 0.0 0.0 0.00 0.13 0.13 94 1010.5
20260509134740 69 164 0.0 1.7 0.00 0.13 0.13 94 1010.6
20260509134238 69 194 0.0 1.7 0.00 0.13 0.13 95 1010.6
20260509133734 68 200 0.0 0.0 0.00 0.13 0.13 95 1010.6
20260509133231 68 179 0.0 0.0 0.00 0.13 0.13 95 1010.5
20260509132730 67 181 0.0 0.0 0.00 0.13 0.13 95 1010.5
20260509132228 67 146 0.0 0.0 0.00 0.13 0.13 95 1010.7
20260509131724 67 175 0.0 0.0 0.00 0.13 0.13 95 1010.8
20260509131221 67 178 0.0 0.0 0.00 0.13 0.13 95 1010.8
20260509130717 67 186 0.0 0.0 0.00 0.13 0.13 95 1010.6
20260509130213 67 186 0.0 0.0 0.00 0.13 0.13 95 1010.7
20260509125710 66 186 0.0 0.0 0.00 0.13 0.13 95 1010.7
20260509125207 66 186 0.0 0.0 0.00 0.13 0.13 95 1010.7
20260509124703 66 192 0.0 0.0 0.00 0.13 0.13 95 1010.8
20260509124159 66 182 0.0 0.0 0.00 0.13 0.13 95 1010.8
20260509123658 66 177 0.0 0.0 0.00 0.13 0.13 95 1010.8
20260509123155 66 153 0.0 0.0 0.00 0.13 0.13 95 1010.7
20260509122650 66 172 0.0 0.0 0.00 0.13 0.13 95 1010.6
20260509122148 66 139 0.0 0.0 0.00 0.13 0.13 95 1010.4
20260509121644 65 151 0.0 0.0 0.00 0.13 0.13 95 1010.5
20260509121142 65 166 0.0 1.7 0.00 0.13 0.13 95 1010.2
20260509120640 65 170 0.0 0.0 0.00 0.13 0.13 95 1010.1
20260509120138 64 193 0.0 0.0 0.00 0.13 0.13 95 1010.1
20260509115635 64 182 0.0 0.0 0.00 0.13 0.13 95 1010.1
20260509115132 64 182 0.0 0.0 0.00 0.13 0.13 95 1009.9
20260509114631 64 188 0.0 0.0 0.00 0.13 0.13 95 1009.6
20260509114129 64 185 0.0 0.0 0.00 0.13 0.13 94 1009.5
20260509113627 64 199 0.0 0.0 0.00 0.13 0.13 94 1009.5
20260509113124 64 191 0.0 0.0 0.00 0.13 0.13 94 1009.5
20260509112620 64 171 0.0 0.0 0.00 0.13 0.13 94 1009.5
20260509112117 64 157 0.0 0.0 0.00 0.13 0.13 94 1009.4
20260509111614 64 166 0.0 0.0 0.00 0.13 0.13 94 1009.4
20260509111111 64 176 0.0 0.0 0.00 0.13 0.13 94 1009.2
20260509110608 63 169 0.0 0.0 0.00 0.13 0.13 94 1009.0
20260509110105 63 173 0.0 0.0 0.00 0.13 0.13 94 1009.2
20260509105604 63 194 0.0 0.0 0.00 0.13 0.13 94 1009.3
20260509105101 63 190 0.0 0.0 0.00 0.13 0.13 94 1009.1
20260509104557 63 188 0.0 0.0 0.00 0.13 0.13 94 1009.0
20260509104054 63 115 0.0 0.0 0.00 0.13 0.13 93 1009.2
20260509103552 63 167 0.0 0.0 0.00 0.13 0.13 93 1009.2
20260509103050 63 194 0.0 0.0 0.00 0.13 0.13 93 1009.2
20260509102547 64 195 0.0 0.0 0.00 0.13 0.13 93 1009.0
20260509102044 64 195 0.0 0.0 0.00 0.13 0.13 93 1009.1
20260509101540 64 206 0.0 0.0 0.00 0.13 0.13 93 1009.0
20260509101037 64 213 0.0 0.0 0.00 0.13 0.13 93 1009.4
20260509100535 64 172 0.0 0.0 0.00 0.13 0.13 93 1009.1
20260509100032 64 208 0.0 0.0 0.00 0.13 0.13 93 1009.2
20260509095528 64 185 0.0 0.0 0.00 0.13 0.13 93 1009.2
20260509095026 64 178 0.0 0.0 0.05 0.13 0.13 92 1009.3
20260509094522 64 179 0.0 0.0 0.12 0.13 0.13 92 1009.4
20260509094019 64 195 0.0 0.0 0.07 0.12 0.12 92 1009.4
20260509093517 64 250 0.0 0.0 0.00 0.11 0.11 92 1009.4
20260509093015 64 185 0.0 0.0 0.00 0.11 0.11 92 1009.6
20260509092513 64 189 0.0 1.7 0.07 0.11 0.11 92 1009.7
20260509092011 64 178 0.0 0.0 0.05 0.10 0.10 91 1009.4
20260509091508 64 181 0.0 0.0 0.05 0.10 0.10 91 1009.2
20260509091004 64 212 0.0 0.0 0.00 0.09 0.09 91 1009.3
20260509090502 63 213 0.0 0.0 0.00 0.09 0.09 91 1009.3
20260509085959 63 211 0.0 0.0 0.00 0.09 0.09 91 1009.2
20260509085456 63 214 0.0 0.0 0.00 0.09 0.09 91 1009.1
20260509084952 63 214 0.0 0.0 0.00 0.09 0.09 91 1009.3
20260509084450 63 214 0.0 0.0 0.00 0.09 0.09 91 1009.2
20260509083947 63 182 0.0 0.0 0.00 0.09 0.09 90 1009.2
20260509083445 63 182 0.0 0.0 0.00 0.09 0.09 90 1009.3
20260509082941 63 182 0.0 0.0 0.00 0.09 0.09 90 1009.2
20260509082438 63 182 0.0 0.0 0.00 0.09 0.09 90 1009.1
20260509081935 63 204 0.0 0.0 0.00 0.09 0.09 89 1009.3
20260509081432 63 204 0.0 0.0 0.00 0.09 0.09 89 1009.1
20260509080929 63 239 0.0 0.0 0.00 0.09 0.09 89 1009.3
20260509080428 63 179 0.0 0.0 0.00 0.09 0.09 89 1009.0
20260509075925 64 225 0.0 0.0 0.00 0.09 0.09 88 1009.5
20260509075422 64 212 0.0 0.0 0.00 0.09 0.09 88 1009.3
20260509074919 64 230 0.0 0.0 0.00 0.09 0.09 88 1009.4
20260509074417 64 297 0.0 0.0 0.00 0.09 0.09 88 1009.5
20260509073913 65 185 0.0 0.0 0.00 0.09 0.09 88 1009.3
20260509073410 65 178 0.0 0.0 0.00 0.09 0.09 88 1009.6
20260509072906 65 255 0.0 0.0 0.00 0.09 0.09 88 1009.6
20260509072403 64 230 0.0 0.0 0.00 0.09 0.09 87 1009.6
20260509071900 64 320 0.0 0.0 0.00 0.09 0.09 87 1009.6
20260509071357 64 274 0.0 0.0 0.00 0.09 0.09 86 1009.7
20260509070854 65 278 0.0 0.0 0.00 0.09 0.09 86 1009.6
20260509070350 65 233 0.0 0.0 0.00 0.09 0.09 86 1009.6
20260509065846 65 226 0.0 0.0 0.00 0.09 0.09 85 1009.7
20260509065343 66 219 0.0 0.0 0.00 0.09 0.09 85 1009.8
20260509064839 66 296 0.0 0.0 0.00 0.09 0.09 84 1009.9
20260509064337 66 328 0.0 0.0 0.00 0.09 0.09 84 1009.8
20260509063835 67 211 0.0 0.0 0.00 0.09 0.09 84 1010.1
20260509063330 67 178 0.0 0.0 0.00 0.09 0.09 83 1009.6
20260509062828 67 99 0.0 1.7 0.00 0.09 0.09 83 1009.6
20260509062325 67 169 0.9 1.7 0.00 0.09 0.09 83 1009.6
20260509061822 67 182 0.9 2.6 0.00 0.09 0.09 83 1009.6
20260509061320 67 140 1.7 3.5 0.00 0.09 0.09 82 1009.6
20260509060817 67 161 4.3 5.2 0.00 0.09 0.09 82 1009.6
20260509060313 67 96 0.0 3.5 0.00 0.09 0.09 82 1009.6
20260509055809 67 177 1.7 2.6 0.00 0.09 0.09 81 1009.9
20260509055306 67 125 1.7 3.5 0.00 0.09 0.09 81 1010.0
20260509054802 68 161 0.0 3.5 0.00 0.09 0.09 81 1010.3
20260509054258 68 144 0.9 5.2 0.00 0.09 0.09 80 1010.2
20260509053757 68 114 1.7 6.1 0.00 0.09 0.09 80 1010.3
20260509053254 67 180 1.7 5.2 0.00 0.09 0.09 80 1010.5
20260509052752 67 160 3.5 5.2 0.00 0.09 0.09 80 1010.4
20260509052249 67 159 1.7 3.5 0.00 0.09 0.09 80 1010.4
20260509051747 67 169 0.0 5.2 0.00 0.09 0.09 80 1010.6
20260509051245 67 182 2.6 2.6 0.00 0.09 0.09 79 1010.7
20260509050741 67 186 1.7 2.6 0.00 0.09 0.09 79 1010.5
20260509050237 68 174 1.7 2.6 0.00 0.09 0.09 78 1010.8
20260509045735 68 218 0.0 0.0 0.00 0.09 0.09 78 1011.0
20260509045231 68 183 0.0 0.0 0.00 0.09 0.09 77 1010.9
20260509044729 68 232 0.0 0.0 0.00 0.09 0.09 77 1010.9
20260509044227 68 189 0.0 2.6 0.00 0.09 0.09 77 1010.8
20260509043722 68 38 1.7 2.6 0.00 0.09 0.09 77 1010.7
20260509043219 69 45 0.0 0.9 0.00 0.09 0.09 76 1010.7
20260509042715 69 178 0.0 0.9 0.00 0.09 0.09 76 1010.9
20260509042211 68 175 0.9 2.6 0.00 0.09 0.09 76 1010.8
20260509041708 68 173 1.7 1.7 0.00 0.09 0.09 76 1010.9
20260509041205 68 189 0.0 1.7 0.00 0.09 0.09 76 1010.6
20260509040704 69 178 0.0 0.0 0.00 0.09 0.09 75 1010.6
20260509040200 69 134 0.0 0.9 0.00 0.09 0.09 74 1010.3
20260509035657 69 249 0.0 1.7 0.00 0.09 0.09 74 1010.9
20260509035153 69 7 0.9 3.5 0.00 0.09 0.09 74 1010.4
20260509034651 69 12 2.6 3.5 0.00 0.09 0.09 73 1010.2
20260509034148 69 218 0.0 0.0 0.00 0.09 0.09 73 1010.5
20260509033645 69 265 0.0 1.7 0.00 0.09 0.09 72 1010.5
20260509033142 69 198 0.0 1.7 0.00 0.09 0.09 72 1009.7
20260509032640 69 176 3.5 7.0 0.00 0.09 0.09 72 1009.2
20260509032136 70 174 2.6 5.2 0.00 0.09 0.09 72 1008.9
20260509031634 70 178 1.7 5.2 0.00 0.09 0.09 72 1009.0
20260509031131 70 180 3.5 3.5 0.00 0.09 0.09 71 1009.5
20260509030630 70 318 1.7 2.6 0.00 0.09 0.09 72 1009.6
20260509030126 70 182 0.9 2.6 0.00 0.09 0.09 72 1008.4
20260509025622 70 136 2.6 3.5 0.00 0.09 0.09 73 1008.4
20260509025119 69 177 3.5 7.8 0.00 0.09 0.09 74 1007.6
20260509024614 69 139 3.5 7.0 0.00 0.09 0.09 75 1008.3
20260509024110 69 175 3.5 5.2 0.00 0.09 0.09 76 1008.7
20260509023608 69 178 1.7 1.7 0.00 0.09 0.09 77 1009.4
20260509023105 69 159 1.7 1.7 0.00 0.09 0.09 77 1009.5
20260509022601 69 185 0.9 0.9 0.00 0.09 0.09 77 1009.7
20260509022059 69 172 0.0 0.0 0.00 0.09 0.09 77 1009.6
20260509021556 69 180 0.0 0.0 0.00 0.09 0.09 75 1009.6
20260509021053 69 272 0.0 0.9 0.00 0.09 0.09 75 1009.6
20260509020551 70 209 0.0 0.9 0.00 0.09 0.09 75 1009.4
20260509020047 70 206 0.0 0.0 0.00 0.09 0.09 73 1009.1
20260509015546 70 173 0.0 0.0 0.00 0.09 0.09 73 1009.0
20260509015043 70 169 1.7 1.7 0.00 0.09 0.09 73 1009.0
20260509014539 70 179 0.9 1.7 0.00 0.09 0.09 73 1008.8
20260509014036 70 175 1.7 2.6 0.00 0.09 0.09 73 1008.8
20260509013533 70 167 0.0 0.9 0.00 0.09 0.09 73 1008.8
20260509013028 70 164 0.0 0.9 0.00 0.09 0.09 73 1008.6
20260509012525 70 186 0.0 0.9 0.00 0.09 0.09 74 1008.5
20260509012022 70 160 0.0 1.7 0.00 0.09 0.09 74 1008.5
20260509011520 70 170 0.0 1.7 0.00 0.09 0.09 75 1008.7
20260509011017 70 151 0.9 1.7 0.00 0.09 0.09 75 1008.6
20260509010516 70 175 0.0 0.0 0.00 0.09 0.09 75 1008.5
20260509010012 70 213 0.0 0.0 0.00 0.09 0.09 74 1008.6
20260509005510 71 228 0.0 0.0 0.00 0.09 0.09 73 1008.5
20260509005009 71 184 0.0 0.0 0.00 0.09 0.09 72 1008.3
20260509004506 72 190 0.0 0.0 0.00 0.09 0.09 71 1008.4
20260509004003 73 184 0.0 0.0 0.00 0.09 0.09 70 1008.3
20260509003502 73 182 0.0 0.0 0.00 0.09 0.09 70 1008.1
20260509002958 73 191 0.0 0.0 0.00 0.09 0.09 69 1008.2
20260509002456 73 174 0.9 1.7 0.00 0.09 0.09 68 1008.2
20260509001953 74 184 0.0 0.0 0.00 0.09 0.09 69 1008.2
20260509001450 74 174 0.0 1.7 0.00 0.09 0.09 68 1008.0
20260509000947 74 144 0.9 1.7 0.00 0.09 0.09 69 1007.8
20260509000447 74 142 0.0 1.7 0.00 0.09 0.09 69 1007.4
20260508235941 74 158 2.6 3.5 0.00 0.09 0.09 69 1007.2
20260508235439 75 74 1.7 2.6 0.00 0.09 0.09 68 1007.5
20260508234935 75 55 0.0 2.6 0.00 0.09 0.09 69 1007.9
20260508234432 75 152 1.7 2.6 0.00 0.09 0.09 68 1008.2
20260508233929 75 144 0.0 2.6 0.00 0.09 0.09 68 1008.4
20260508233429 75 194 0.0 2.6 0.00 0.09 0.09 67 1008.6
20260508232925 75 152 1.7 3.5 0.00 0.09 0.09 67 1008.5
20260508232422 76 168 0.0 0.9 0.00 0.09 0.09 66 1009.0
20260508231919 76 161 0.9 2.6 0.00 0.09 0.09 66 1009.1
20260508231416 76 152 1.7 1.7 0.00 0.09 0.09 66 1009.1
20260508230913 76 199 0.0 0.0 0.00 0.09 0.09 67 1009.1
20260508230410 76 193 0.0 0.0 0.00 0.09 0.09 65 1009.1
20260508225907 76 116 0.9 1.7 0.00 0.09 0.09 65 1009.0
20260508225403 77 143 1.7 2.6 0.00 0.09 0.09 64 1009.2
20260508224901 77 179 0.0 1.7 0.00 0.09 0.09 64 1009.2
20260508224358 77 144 0.9 2.6 0.00 0.09 0.09 63 1009.3
20260508223856 78 184 0.9 1.7 0.00 0.09 0.09 63 1009.3
20260508223353 78 151 0.9 2.6 0.00 0.09 0.09 63 1009.3
20260508222851 77 185 2.6 3.5 0.00 0.09 0.09 62 1009.2
20260508222348 78 122 2.6 3.5 0.00 0.09 0.09 62 1009.4
20260508221844 78 184 0.9 5.2 0.00 0.09 0.09 62 1009.2
20260508221340 77 132 1.7 3.5 0.00 0.09 0.09 62 1009.1
20260508220837 78 132 1.7 3.5 0.00 0.09 0.09 63 1008.9
20260508220333 77 155 0.9 2.6 0.00 0.09 0.09 65 1008.9
20260508215830 77 166 0.9 3.5 0.00 0.09 0.09 64 1008.9
20260508215327 77 120 3.5 5.2 0.00 0.09 0.09 64 1009.0
20260508214824 78 121 6.1 6.1 0.00 0.09 0.09 63 1008.9
20260508214321 78 193 3.5 7.0 0.00 0.09 0.09 63 1008.9
20260508213817 78 67 0.0 7.8 0.00 0.09 0.09 63 1008.7
20260508213313 78 168 1.7 7.0 0.00 0.09 0.09 64 1008.7